sat.trackr.live / text

‹ back to catalog

STARLINK-36722

NORAD 67917 · 2026-036P

PAYLOAD ACTIVE UNKNOWN

§ Identity

Operator
Country
US
Launch date
2026-02-22
Launch site
AFETR
Launch vehicle
Mass (kg)
RCS (m²)

Purposes: comms

External: N2YO · Heavens-Above · Gunter

§ Orbital elements

Epoch: 2026-09-19T22:32:55.004064Z

Period
94.27 min
Inclination
42.9961°
Eccentricity
0.0000048
Mean motion
15.27591806 rev/d
Perigee alt
483.0 km
Apogee alt
483.0 km
Semi-major
6,861.2 km
B*
3.3942e-4
RAAN
227.9198°
Arg perigee
340.0610°
Mean anomaly
20.0239°
Rev number
3,343

§ Raw data

STARLINK-367221 67917U 26036P   26262.93952551  .00009093  00000+0  33942-3 0  99982 67917  42.9961 227.9198 0000048 340.0610  20.0239 15.27591806 33430

JSON: /api/v1/satellites/67917 · /tle

For live sub-satellite position, see the globe view (requires WebGL).

§ Visibility from observer

Set your observer location to see the next 7 days of passes ≥ 10°. The values pass through the URL so the page stays shareable.

No JS? Fill the form by hand. The geolocation button needs JavaScript.